EN

Hourly Weather Yahlush

Today, 25 November, Wednesday

Time Temperature Precipitation Wind Pressure Humidity
00:00 +1°C° 0 mm 2 mps 741 mmHg 80%
01:00 -1°C° 0 mm 2 mps 740 mmHg 79%
02:00 -1°C° 0 mm 2 mps 740 mmHg 81%
03:00 -1°C° 0 mm 2 mps 740 mmHg 80%
04:00 -1°C° 0 mm 2 mps 740 mmHg 80%
05:00 -1°C° 0 mm 2 mps 740 mmHg 79%
06:00 -1°C° 0 mm 2 mps 740 mmHg 79%
07:00 -1°C° 0 mm 2 mps 740 mmHg 78%
08:00 -2°C° 0 mm 2 mps 740 mmHg 78%
09:00 +1°C° 0 mm 2 mps 740 mmHg 72%
10:00 +2°C° 0 mm 2 mps 740 mmHg 66%
11:00 +3°C° 0 mm 2 mps 740 mmHg 60%
12:00 +5°C° 0 mm 1 mps 740 mmHg 58%
13:00 +6°C° 0 mm 1 mps 739 mmHg 55%
14:00 +6°C° 0 mm 1 mps 739 mmHg 53%
15:00 +5°C° 0 mm 1 mps 739 mmHg 57%
16:00 +3°C° 0 mm 0 mps 739 mmHg 61%
17:00 +2°C° 0 mm 0 mps 739 mmHg 65%
18:00 +2°C° 0 mm 0 mps 739 mmHg 65%
19:00 +2°C° 0 mm 1 mps 739 mmHg 65%
20:00 +2°C° 0 mm 1 mps 739 mmHg 65%
21:00 +2°C° 0 mm 1 mps 739 mmHg 65%
22:00 +2°C° 0 mm 1 mps 739 mmHg 66%
23:00 +1°C° 0 mm 1 mps 739 mmHg 66%

Tomorrow, 26 November, Thursday

Time Temperature Precipitation Wind Pressure Humidity
00:00 +1°C° 0 mm 1 mps 739 mmHg 66%
01:00 +1°C° 0 mm 1 mps 739 mmHg 65%
02:00 +1°C° 0 mm 1 mps 739 mmHg 65%
03:00 +1°C° 0 mm 1 mps 738 mmHg 64%
04:00 +1°C° 0 mm 1 mps 738 mmHg 63%
05:00 0°C° 0 mm 1 mps 738 mmHg 63%
06:00 0°C° 0 mm 1 mps 738 mmHg 61%
07:00 0°C° 0 mm 1 mps 738 mmHg 59%
08:00 0°C° 0 mm 1 mps 738 mmHg 57%
09:00 +2°C° 0 mm 1 mps 738 mmHg 51%
10:00 +3°C° 0 mm 1 mps 738 mmHg 46%
11:00 +5°C° 0 mm 1 mps 738 mmHg 40%
12:00 +6°C° 0 mm 1 mps 738 mmHg 40%
13:00 +6°C° 0 mm 1 mps 738 mmHg 40%
14:00 +7°C° 0 mm 1 mps 737 mmHg 40%
15:00 +5°C° 0 mm 1 mps 737 mmHg 44%
16:00 +4°C° 0 mm 1 mps 737 mmHg 48%
17:00 +2°C° 0 mm 1 mps 736 mmHg 52%
18:00 +2°C° 0 mm 1 mps 736 mmHg 53%
19:00 +2°C° 0 mm 1 mps 737 mmHg 53%
20:00 +2°C° 0 mm 1 mps 737 mmHg 54%
21:00 +1°C° 0 mm 1 mps 737 mmHg 55%
22:00 +1°C° 0 mm 1 mps 737 mmHg 55%
23:00 +1°C° 0 mm 1 mps 736 mmHg 56%

Day after tomorrow, 27 November, Friday

Time Temperature Precipitation Wind Pressure Humidity
00:00 +1°C° 0 mm 1 mps 736 mmHg 57%
01:00 +1°C° 0 mm 1 mps 736 mmHg 58%
02:00 +1°C° 0 mm 1 mps 736 mmHg 59%
03:00 +1°C° 0 mm 1 mps 736 mmHg 59%
04:00 +1°C° 0 mm 1 mps 736 mmHg 59%
05:00 +1°C° 0 mm 1 mps 736 mmHg 59%
06:00 +1°C° 0 mm 1 mps 736 mmHg 59%
07:00 +1°C° 0 mm 1 mps 736 mmHg 59%
08:00 +1°C° 0 mm 1 mps 736 mmHg 59%
09:00 +2°C° 0 mm 1 mps 736 mmHg 57%
10:00 +3°C° 0 mm 1 mps 736 mmHg 54%
11:00 +3°C° 0 mm 2 mps 736 mmHg 51%
12:00 +4°C° 0 mm 2 mps 736 mmHg 52%
13:00 +4°C° 0 mm 2 mps 736 mmHg 53%
14:00 +5°C° 0 mm 2 mps 736 mmHg 53%
15:00 +4°C° 0 mm 2 mps 736 mmHg 58%
16:00 +3°C° 0 mm 2 mps 736 mmHg 63%
17:00 +3°C° 0 mm 2 mps 736 mmHg 68%
18:00 +2°C° 0 mm 2 mps 736 mmHg 71%
19:00 +2°C° 0 mm 2 mps 736 mmHg 75%
20:00 +1°C° 0 mm 3 mps 736 mmHg 78%
21:00 +1°C° 0.2 mm 3 mps 736 mmHg 84%
22:00 +1°C° 0.2 mm 3 mps 736 mmHg 90%
23:00 +2°C° 0.2 mm 2 mps 737 mmHg 96%

28 November, Saturday

Time Temperature Precipitation Wind Pressure Humidity
00:00 +1°C° 0.2 mm 3 mps 736 mmHg 96%
01:00 +1°C° 0.2 mm 3 mps 736 mmHg 96%
02:00 +1°C° 0.2 mm 3 mps 736 mmHg 96%
03:00 +1°C° 0 mm 3 mps 736 mmHg 95%
04:00 +2°C° 0 mm 2 mps 736 mmHg 94%
05:00 +2°C° 0 mm 2 mps 736 mmHg 93%
06:00 +2°C° 0 mm 2 mps 736 mmHg 90%
07:00 +2°C° 0 mm 2 mps 736 mmHg 87%
08:00 +1°C° 0 mm 3 mps 736 mmHg 85%
09:00 +2°C° 0.1 mm 2 mps 736 mmHg 87%
10:00 +2°C° 0.1 mm 2 mps 736 mmHg 90%
11:00 +2°C° 0.1 mm 2 mps 736 mmHg 92%
12:00 +1°C° 0.3 mm 3 mps 736 mmHg 93%
13:00 +1°C° 0.3 mm 3 mps 736 mmHg 93%
14:00 0°C° 0.3 mm 4 mps 736 mmHg 94%
15:00 0°C° 0.3 mm 3 mps 736 mmHg 94%
16:00 0°C° 0.3 mm 3 mps 736 mmHg 94%
17:00 0°C° 0.3 mm 3 mps 736 mmHg 94%
18:00 -1°C° 0.3 mm 3 mps 736 mmHg 94%
19:00 -1°C° 0.3 mm 3 mps 736 mmHg 94%
20:00 -1°C° 0.3 mm 3 mps 737 mmHg 94%
21:00 -2°C° 0.1 mm 3 mps 737 mmHg 93%
22:00 -3°C° 0.1 mm 4 mps 737 mmHg 92%
23:00 -3°C° 0.1 mm 4 mps 737 mmHg 91%

29 November, Sunday

Time Temperature Precipitation Wind Pressure Humidity
00:00 -3°C° 0 mm 4 mps 737 mmHg 91%
01:00 -4°C° 0 mm 4 mps 737 mmHg 91%
02:00 -4°C° 0 mm 4 mps 738 mmHg 91%
03:00 -4°C° 0.1 mm 4 mps 738 mmHg 92%
04:00 -4°C° 0.1 mm 4 mps 738 mmHg 93%
05:00 -4°C° 0.1 mm 4 mps 738 mmHg 93%
06:00 -4°C° 0.1 mm 4 mps 738 mmHg 94%
07:00 -4°C° 0.1 mm 4 mps 738 mmHg 94%
08:00 -4°C° 0.1 mm 4 mps 738 mmHg 94%
09:00 -4°C° 0.1 mm 3 mps 738 mmHg 91%
10:00 -4°C° 0.1 mm 3 mps 739 mmHg 89%
11:00 -2°C° 0.1 mm 3 mps 739 mmHg 87%
12:00 -2°C° 0 mm 3 mps 739 mmHg 85%
13:00 -2°C° 0 mm 3 mps 738 mmHg 83%
14:00 -2°C° 0 mm 3 mps 738 mmHg 81%
15:00 -2°C° 0 mm 3 mps 738 mmHg 83%
16:00 -2°C° 0 mm 3 mps 738 mmHg 85%
17:00 -2°C° 0 mm 2 mps 738 mmHg 87%
18:00 -3°C° 0 mm 2 mps 738 mmHg 89%
19:00 -3°C° 0 mm 2 mps 738 mmHg 91%
20:00 -3°C° 0 mm 2 mps 738 mmHg 92%
21:00 -3°C° 0.1 mm 2 mps 738 mmHg 93%
22:00 -4°C° 0.1 mm 3 mps 738 mmHg 93%
23:00 -4°C° 0.1 mm 3 mps 738 mmHg 94%

30 November, Monday

Time Temperature Precipitation Wind Pressure Humidity
00:00 -4°C° 0 mm 3 mps 738 mmHg 93%
01:00 -4°C° 0 mm 3 mps 738 mmHg 93%
02:00 -4°C° 0 mm 3 mps 737 mmHg 93%
03:00 -4°C° 0 mm 3 mps 738 mmHg 94%
04:00 -5°C° 0 mm 3 mps 738 mmHg 94%
05:00 -5°C° 0 mm 3 mps 738 mmHg 95%
06:00 -5°C° 0.1 mm 3 mps 738 mmHg 95%
07:00 -5°C° 0.1 mm 3 mps 738 mmHg 95%
08:00 -5°C° 0.1 mm 3 mps 738 mmHg 95%
09:00 -4°C° 0 mm 3 mps 739 mmHg 93%
10:00 -4°C° 0 mm 3 mps 739 mmHg 90%
11:00 -2°C° 0 mm 2 mps 739 mmHg 88%
12:00 -2°C° 0 mm 2 mps 739 mmHg 87%
13:00 -2°C° 0 mm 2 mps 739 mmHg 85%
14:00 -1°C° 0 mm 2 mps 739 mmHg 83%
15:00 -2°C° 0 mm 2 mps 739 mmHg 85%
16:00 -2°C° 0 mm 2 mps 739 mmHg 86%
17:00 0°C° 0 mm 1 mps 739 mmHg 88%
18:00 0°C° 0 mm 1 mps 740 mmHg 89%
19:00 0°C° 0 mm 1 mps 740 mmHg 90%
20:00 0°C° 0 mm 1 mps 740 mmHg 92%
21:00 0°C° 0 mm 1 mps 740 mmHg 92%
22:00 0°C° 0 mm 1 mps 740 mmHg 92%
23:00 0°C° 0 mm 1 mps 740 mmHg 92%
Show more

We Need Your Consent

Meteoprog and our Service Providers may store and access personal data such as cookies, device identifiers or other similar technologies on your device and process such data to personalise content and ads, as well as provide social media features and to analyse the traffic.

  • Store and/or access information on your device

    Cookies, device identifiers or other information can be stored or accessed on your device for the purposes indicated above.

  • Personalised ads and content, ad and content measurement, audience insights, and products development

    Ads and content can be personalised based on a profile. More data can be added to better personalise ads and content. Ad and content performance can be measured. Insights about the audience who saw the ads and content can be derived. Such data can be used to develop or improve user’s experience, systems and software.

By clicking ‘I Agree’ you will allow the use of indicated cookies, device identifiers, web beacons or other similar technologies. Your settings can be changed in the browser on your device.

For certain purposes, legitimate interests may be relied on, rather than consent. You can read more about this in our Privacy and Cookie Policy.